Regional Weather Roundup
Issued by NWS Goodland, KS

Home | Current Version | Previous Version | Graphics & Text | Print | Product List | Glossary On
Versions: 1 2 3 4 5 6 7 8 9 10 11 12 13 14 15 16 17 18 19 20 21 22 23 24 25 26 27 28 29 30 31 32 33 34 35 36 37 38 39 40 41 42 43 44 45 46 47 48 49 50
000
ASUS43 KGLD 271159
RWRGLD

GOODLAND FORECAST AREA HOURLY WEATHER ROUNDUP
NATIONAL WEATHER SERVICE GOODLAND KS
500 AM MST SAT DEC 27 2014

...OFFICIAL OBSERVATIONS...

CITY           SKY/WX    TMP DP  RH WIND       PRES   REMARKS
GOODLAND KS    PTCLDY     5   2  87 W8        30.17R
HILL CITY KS   PTCLDY     8   4  83 W7        30.25R
IMPERIAL NEB   CLEAR      7   2  80 W10       30.16S WCI  -8
MCCOOK NEB     CLOUDY     8   5  87 SW6       30.20R
AKRON CO       PTCLDY     6   3  87 W17       30.10S WCI -13
BURLINGTON CO  CLEAR      3  -1  83 W10       30.14R WCI -12
LIMON CO       CLEAR      2  -2  83 NW3       30.10R
$$

...UNOFFICIAL OBSERVATIONS...

CITY           SKY/WX    TMP DP  RH WIND       PRES   REMARKS
COLBY KS       CLEAR      3   3 100 W12       30.20R WCI -13
NORTON KS      CLEAR      5   0  78 SW9       30.22R
SHARON SPRINGS   N/A      0  -3  86 W5          N/A
TRIBUNE KS     PTCLDY     5   3  92 SW8       30.22R
KIT CARSON CO    N/A      4   0  83 MISG        N/A
$$



USA.gov is the U.S. government's official web portal to all federal, state and local government web resources and services.